Time,TemperatureF,DewpointF,PressureIn,WindDirection,WindDirectionDegrees,WindSpeedMPH,WindSpeedGustMPH,Humidity,HourlyPrecipIn,Conditions,Clouds,dailyrainin,SoftwareType,DateUTC
2013-02-24 00:00:00,69.4,67.3,29.85,SSW,211,0.0,0.0,93,0.00,,,0.00,Wunderground v.1.15,2013-02-24 05:00:00,
2013-02-24 00:05:00,69.4,67.3,29.85,SSW,211,0.0,0.0,93,0.00,,,0.00,Wunderground v.1.15,2013-02-24 05:05:00,
2013-02-24 00:10:00,69.3,67.2,29.85,SSW,211,0.0,0.0,93,0.00,,,0.00,Wunderground v.1.15,2013-02-24 05:10:00,
2013-02-24 00:15:00,69.3,67.2,29.85,SSW,211,0.0,0.0,93,0.00,,,0.00,Wunderground v.1.15,2013-02-24 05:15:00,
2013-02-24 00:20:00,69.3,67.2,29.85,SW,215,0.0,0.0,93,0.00,,,0.00,Wunderground v.1.15,2013-02-24 05:20:00,
2013-02-24 00:30:00,69.3,67.5,29.85,SW,232,0.0,0.0,94,0.00,,,0.00,Wunderground v.1.15,2013-02-24 05:30:00,
2013-02-24 00:40:00,69.3,67.5,29.85,SW,232,0.0,0.0,94,0.00,,,0.00,Wunderground v.1.15,2013-02-24 05:40:00,
2013-02-24 00:45:00,69.1,67.3,29.85,SW,232,0.0,0.0,94,0.00,,,0.00,Wunderground v.1.15,2013-02-24 05:45:00,
2013-02-24 00:55:00,69.1,67.3,29.85,SW,232,0.0,0.0,94,0.00,,,0.00,Wunderground v.1.15,2013-02-24 05:55:00,
2013-02-24 01:00:00,69.1,67.3,29.84,SW,232,0.0,0.0,94,0.00,,,0.00,Wunderground v.1.15,2013-02-24 06:00:00,
2013-02-24 01:05:00,69.1,67.3,29.84,WSW,251,0.0,2.0,94,0.00,,,0.00,Wunderground v.1.15,2013-02-24 06:05:00,
2013-02-24 01:15:00,69.1,67.3,29.85,West,269,0.0,0.0,94,0.00,,,0.00,Wunderground v.1.15,2013-02-24 06:15:00,
2013-02-24 01:25:00,69.3,67.5,29.85,NNW,339,0.0,0.0,94,0.00,,,0.00,Wunderground v.1.15,2013-02-24 06:25:00,
2013-02-24 01:30:00,69.3,67.5,29.85,NNW,339,0.0,0.0,94,0.00,,,0.00,Wunderground v.1.15,2013-02-24 06:30:00,
2013-02-24 01:35:00,69.3,67.5,29.85,NNW,339,0.0,0.0,94,0.00,,,0.00,Wunderground v.1.15,2013-02-24 06:35:00,
2013-02-24 01:45:00,69.3,67.5,29.84,NNW,339,0.0,0.0,94,0.00,,,0.00,Wunderground v.1.15,2013-02-24 06:45:00,
2013-02-24 01:55:00,69.3,67.5,29.84,NNW,339,0.0,0.0,94,0.00,,,0.00,Wunderground v.1.15,2013-02-24 06:55:00,
2013-02-24 02:10:00,69.1,67.3,29.83,NNW,339,0.0,0.0,94,0.00,,,0.00,Wunderground v.1.15,2013-02-24 07:10:00,
2013-02-24 02:15:00,69.1,67.3,29.82,NNW,339,0.0,0.0,94,0.00,,,0.00,Wunderground v.1.15,2013-02-24 07:15:00,
2013-02-24 02:25:00,69.1,67.3,29.82,NNW,339,0.0,0.0,94,0.00,,,0.00,Wunderground v.1.15,2013-02-24 07:25:00,
2013-02-24 02:30:00,69.1,67.3,29.81,NNW,339,0.0,0.0,94,0.00,,,0.00,Wunderground v.1.15,2013-02-24 07:30:00,
2013-02-24 02:40:00,68.9,67.1,29.81,NNW,339,0.0,0.0,94,0.00,,,0.00,Wunderground v.1.15,2013-02-24 07:40:00,
2013-02-24 02:50:00,68.8,67.0,29.81,NNW,339,0.0,0.0,94,0.00,,,0.00,Wunderground v.1.15,2013-02-24 07:50:00,
2013-02-24 03:00:00,68.6,66.8,29.82,NW,306,0.0,0.0,94,0.00,,,0.00,Wunderground v.1.15,2013-02-24 08:00:00,
2013-02-24 03:05:00,68.6,66.8,29.82,NW,306,0.0,0.0,94,0.00,,,0.00,Wunderground v.1.15,2013-02-24 08:05:00,
2013-02-24 03:15:00,68.4,66.9,29.81,NW,306,0.0,0.0,95,0.00,,,0.00,Wunderground v.1.15,2013-02-24 08:15:00,
2013-02-24 03:25:00,68.3,66.8,29.81,NW,306,0.0,0.0,95,0.00,,,0.00,Wunderground v.1.15,2013-02-24 08:25:00,
2013-02-24 03:40:00,68.8,67.3,29.81,WSW,252,0.0,0.0,95,0.00,,,0.00,Wunderground v.1.15,2013-02-24 08:40:00,
2013-02-24 03:45:00,68.9,67.4,29.82,SW,232,0.0,0.0,95,0.00,,,0.00,Wunderground v.1.15,2013-02-24 08:45:00,
2013-02-24 03:50:00,69.1,67.6,29.82,West,279,1.0,1.0,95,0.00,,,0.00,Wunderground v.1.15,2013-02-24 08:50:00,
2013-02-24 04:00:00,69.3,67.8,29.82,WSW,244,1.0,1.0,95,0.00,,,0.00,Wunderground v.1.15,2013-02-24 09:00:00,
2013-02-24 04:05:00,69.4,67.9,29.82,SW,227,1.0,1.0,95,0.00,,,0.00,Wunderground v.1.15,2013-02-24 09:05:00,
2013-02-24 04:15:00,69.4,67.9,29.82,WSW,237,0.0,0.0,95,0.00,,,0.00,Wunderground v.1.15,2013-02-24 09:15:00,
2013-02-24 04:25:00,69.6,67.8,29.82,WSW,249,0.0,1.0,94,0.00,,,0.00,Wunderground v.1.15,2013-02-24 09:25:00,
2013-02-24 04:35:00,69.6,67.8,29.82,WSW,248,0.0,1.0,94,0.00,,,0.00,Wunderground v.1.15,2013-02-24 09:35:00,
2013-02-24 04:45:00,69.6,67.8,29.82,WNW,296,0.0,0.0,94,0.00,,,0.00,Wunderground v.1.15,2013-02-24 09:45:00,
2013-02-24 04:55:00,69.8,68.0,29.82,WSW,238,0.0,0.0,94,0.00,,,0.00,Wunderground v.1.15,2013-02-24 09:55:00,
2013-02-24 05:00:00,69.8,68.0,29.82,West,261,0.0,0.0,94,0.00,,,0.00,Wunderground v.1.15,2013-02-24 10:00:00,
2013-02-24 05:05:00,69.9,68.1,29.82,West,261,0.0,0.0,94,0.00,,,0.00,Wunderground v.1.15,2013-02-24 10:05:00,
2013-02-24 05:15:00,69.9,68.1,29.83,SW,225,0.0,0.0,94,0.00,,,0.00,Wunderground v.1.15,2013-02-24 10:15:00,
2013-02-24 05:20:00,69.9,68.1,29.83,WSW,248,0.0,2.0,94,0.00,,,0.00,Wunderground v.1.15,2013-02-24 10:20:00,
2013-02-24 05:30:00,70.1,68.3,29.83,WSW,248,0.0,0.0,94,0.00,,,0.00,Wunderground v.1.15,2013-02-24 10:30:00,
2013-02-24 05:35:00,70.1,68.3,29.83,WSW,248,0.0,0.0,94,0.00,,,0.00,Wunderground v.1.15,2013-02-24 10:35:00,
2013-02-24 05:45:00,70.1,68.3,29.83,WSW,248,0.0,0.0,94,0.00,,,0.00,Wunderground v.1.15,2013-02-24 10:45:00,
2013-02-24 05:55:00,70.1,68.3,29.83,WSW,248,0.0,0.0,94,0.00,,,0.00,Wunderground v.1.15,2013-02-24 10:55:00,
2013-02-24 06:05:00,70.3,68.5,29.83,WSW,248,0.0,0.0,94,0.00,,,0.00,Wunderground v.1.15,2013-02-24 11:05:00,
2013-02-24 06:15:00,70.4,68.6,29.85,WSW,248,0.0,0.0,94,0.00,,,0.00,Wunderground v.1.15,2013-02-24 11:15:00,
2013-02-24 06:25:00,70.6,68.8,29.85,NNW,347,0.0,0.0,94,0.00,,,0.00,Wunderground v.1.15,2013-02-24 11:25:00,
2013-02-24 06:30:00,70.8,69.0,29.84,SW,226,0.0,0.0,94,0.00,,,0.00,Wunderground v.1.15,2013-02-24 11:30:00,
2013-02-24 06:40:00,70.9,69.1,29.84,WSW,246,1.0,2.0,94,0.00,,,0.00,Wunderground v.1.15,2013-02-24 11:40:00,
2013-02-24 06:50:00,71.3,68.9,29.86,WSW,254,1.0,1.0,92,0.00,,,0.00,Wunderground v.1.15,2013-02-24 11:50:00,
2013-02-24 07:00:00,71.5,68.7,29.86,SW,236,1.0,6.0,91,0.00,,,0.00,Wunderground v.1.15,2013-02-24 12:00:00,
2013-02-24 07:10:00,71.5,68.7,29.86,West,281,1.0,1.0,91,0.00,,,0.00,Wunderground v.1.15,2013-02-24 12:10:00,
2013-02-24 07:15:00,71.5,68.4,29.86,SW,225,1.0,1.0,90,0.00,,,0.00,Wunderground v.1.15,2013-02-24 12:15:00,
2013-02-24 07:25:00,71.5,68.4,29.86,West,279,0.0,1.0,90,0.00,,,0.00,Wunderground v.1.15,2013-02-24 12:25:00,
2013-02-24 07:35:00,71.5,68.4,29.87,WNW,288,0.0,0.0,90,0.00,,,0.00,Wunderground v.1.15,2013-02-24 12:35:00,
2013-02-24 07:45:00,71.5,68.7,29.87,WNW,288,0.0,0.0,91,0.00,,,0.00,Wunderground v.1.15,2013-02-24 12:45:00,
2013-02-24 07:55:00,71.3,68.9,29.87,SW,232,0.0,0.0,92,0.00,,,0.00,Wunderground v.1.15,2013-02-24 12:55:00,
2013-02-24 08:00:00,71.1,68.7,29.87,NW,306,0.0,0.0,92,0.00,,,0.00,Wunderground v.1.15,2013-02-24 13:00:00,
2013-02-24 08:05:00,70.9,68.8,29.87,NW,306,0.0,0.0,93,0.00,,,0.00,Wunderground v.1.15,2013-02-24 13:05:00,
2013-02-24 08:15:00,70.9,68.8,29.89,NW,306,0.0,0.0,93,0.00,,,0.00,Wunderground v.1.15,2013-02-24 13:15:00,
2013-02-24 08:25:00,70.8,69.0,29.89,NW,306,0.0,0.0,94,0.00,,,0.00,Wunderground v.1.15,2013-02-24 13:25:00,
2013-02-24 08:35:00,70.8,69.0,29.89,NW,306,0.0,0.0,94,0.00,,,0.00,Wunderground v.1.15,2013-02-24 13:35:00,
2013-02-24 08:40:00,70.6,68.8,29.89,West,269,0.0,0.0,94,0.00,,,0.00,Wunderground v.1.15,2013-02-24 13:40:00,
2013-02-24 08:50:00,70.1,68.3,29.89,West,266,0.0,0.0,94,0.00,,,0.00,Wunderground v.1.15,2013-02-24 13:50:00,
2013-02-24 09:00:00,69.9,68.1,29.89,West,265,0.0,0.0,94,0.00,,,0.00,Wunderground v.1.15,2013-02-24 14:00:00,
2013-02-24 09:05:00,69.9,68.1,29.89,West,265,0.0,0.0,94,0.00,,,0.00,Wunderground v.1.15,2013-02-24 14:05:00,
2013-02-24 09:15:00,70.1,68.3,29.89,West,265,0.0,0.0,94,0.00,,,0.00,Wunderground v.1.15,2013-02-24 14:15:00,
2013-02-24 09:25:00,70.3,68.2,29.89,West,265,0.0,0.0,93,0.00,,,0.00,Wunderground v.1.15,2013-02-24 14:25:00,
2013-02-24 09:35:00,70.3,67.9,29.90,West,265,0.0,0.0,92,0.00,,,0.00,Wunderground v.1.15,2013-02-24 14:35:00,
2013-02-24 09:45:00,70.3,67.9,29.90,West,265,0.0,0.0,92,0.00,,,0.00,Wunderground v.1.15,2013-02-24 14:45:00,
2013-02-24 09:55:00,70.6,67.8,29.90,West,265,0.0,0.0,91,0.00,,,0.00,Wunderground v.1.15,2013-02-24 14:55:00,
2013-02-24 10:05:00,70.8,68.0,29.91,West,265,0.0,0.0,91,0.00,,,0.00,Wunderground v.1.15,2013-02-24 15:05:00,
2013-02-24 10:15:00,70.9,67.5,29.90,West,266,0.0,0.0,89,0.00,,,0.00,Wunderground v.1.15,2013-02-24 15:15:00,
2013-02-24 10:25:00,71.1,67.4,29.90,NNE,26,0.0,1.0,88,0.00,,,0.00,Wunderground v.1.15,2013-02-24 15:25:00,
2013-02-24 10:35:00,71.5,67.4,29.90,NW,311,0.0,0.0,87,0.00,,,0.00,Wunderground v.1.15,2013-02-24 15:35:00,
2013-02-24 10:45:00,71.6,66.8,29.90,NNW,327,0.0,0.0,85,0.00,,,0.00,Wunderground v.1.15,2013-02-24 15:45:00,
2013-02-24 10:50:00,71.8,67.0,29.90,NNW,327,0.0,0.0,85,0.00,,,0.00,Wunderground v.1.15,2013-02-24 15:50:00,
2013-02-24 11:00:00,72.5,67.0,29.91,NW,315,0.0,0.0,83,0.00,,,0.00,Wunderground v.1.15,2013-02-24 16:00:00,
2013-02-24 11:05:00,73.0,66.8,29.91,NNE,13,0.0,0.0,81,0.00,,,0.00,Wunderground v.1.15,2013-02-24 16:05:00,
2013-02-24 11:15:00,73.5,66.2,29.91,NNE,21,1.0,1.0,78,0.00,,,0.00,Wunderground v.1.15,2013-02-24 16:15:00,
2013-02-24 11:25:00,73.7,67.1,29.91,NNE,21,0.0,1.0,80,0.00,,,0.00,Wunderground v.1.15,2013-02-24 16:25:00,
2013-02-24 11:35:00,73.9,67.0,29.91,NNE,21,0.0,0.0,79,0.00,,,0.00,Wunderground v.1.15,2013-02-24 16:35:00,
2013-02-24 11:45:00,74.6,66.9,29.90,ENE,75,1.0,3.0,77,0.00,,,0.00,Wunderground v.1.15,2013-02-24 16:45:00,
2013-02-24 11:55:00,74.6,66.1,29.90,NNE,20,1.0,1.0,75,0.00,,,0.00,Wunderground v.1.15,2013-02-24 16:55:00,
2013-02-24 12:05:00,74.7,65.9,29.90,NNE,20,0.0,0.0,74,0.00,,,0.00,Wunderground v.1.15,2013-02-24 17:05:00,
2013-02-24 12:15:00,74.7,65.9,29.90,NNE,14,0.0,1.0,74,0.00,,,0.00,Wunderground v.1.15,2013-02-24 17:15:00,
2013-02-24 12:20:00,74.7,65.1,29.90,NNE,22,1.0,1.0,72,0.00,,,0.00,Wunderground v.1.15,2013-02-24 17:20:00,
2013-02-24 12:30:00,74.7,65.9,29.90,NNE,22,0.0,0.0,74,0.00,,,0.00,Wunderground v.1.15,2013-02-24 17:30:00,
2013-02-24 12:40:00,75.3,65.6,29.90,ENE,71,0.0,0.0,72,0.00,,,0.00,Wunderground v.1.15,2013-02-24 17:40:00,
2013-02-24 12:50:00,75.3,65.2,29.89,NE,38,1.0,1.0,71,0.00,,,0.00,Wunderground v.1.15,2013-02-24 17:50:00,
2013-02-24 13:00:00,75.8,65.7,29.89,NE,51,0.0,0.0,71,0.00,,,0.00,Wunderground v.1.15,2013-02-24 18:00:00,
2013-02-24 13:05:00,76.3,65.8,29.89,NE,51,0.0,0.0,70,0.00,,,0.00,Wunderground v.1.15,2013-02-24 18:05:00,
2013-02-24 13:15:00,75.8,64.9,29.88,NNE,26,0.0,0.0,69,0.00,,,0.00,Wunderground v.1.15,2013-02-24 18:15:00,
2013-02-24 13:25:00,75.6,65.1,29.88,NNE,26,0.0,0.0,70,0.00,,,0.00,Wunderground v.1.15,2013-02-24 18:25:00,
2013-02-24 13:35:00,76.0,65.9,29.88,East,90,0.0,0.0,71,0.00,,,0.00,Wunderground v.1.15,2013-02-24 18:35:00,
2013-02-24 13:45:00,76.0,65.1,29.87,NNE,32,0.0,2.0,69,0.00,,,0.00,Wunderground v.1.15,2013-02-24 18:45:00,
2013-02-24 13:55:00,75.4,64.9,29.87,NNE,32,1.0,1.0,70,0.00,,,0.00,Wunderground v.1.15,2013-02-24 18:55:00,
2013-02-24 14:05:00,75.6,65.5,29.87,NNW,327,0.0,1.0,71,0.00,,,0.00,Wunderground v.1.15,2013-02-24 19:05:00,
2013-02-24 14:15:00,76.3,65.0,29.87,ENE,73,1.0,1.0,68,0.00,,,0.00,Wunderground v.1.15,2013-02-24 19:15:00,
2013-02-24 14:25:00,76.0,65.1,29.87,NNE,28,1.0,1.0,69,0.00,,,0.00,Wunderground v.1.15,2013-02-24 19:25:00,
2013-02-24 14:35:00,75.6,64.7,29.87,NE,40,0.0,0.0,69,0.00,,,0.00,Wunderground v.1.15,2013-02-24 19:35:00,
2013-02-24 14:45:00,75.3,65.6,29.87,NE,40,0.0,0.0,72,0.00,,,0.00,Wunderground v.1.15,2013-02-24 19:45:00,
2013-02-24 14:55:00,74.6,67.7,29.87,NE,40,0.0,0.0,79,0.00,,,0.00,Wunderground v.1.15,2013-02-24 19:55:00,
2013-02-24 15:05:00,74.4,67.8,29.86,NE,40,0.0,0.0,80,0.00,,,0.00,Wunderground v.1.15,2013-02-24 20:05:00,
2013-02-24 15:15:00,75.3,65.6,29.86,ENE,69,0.0,0.0,72,0.00,,,0.00,Wunderground v.1.15,2013-02-24 20:15:00,
2013-02-24 15:25:00,75.4,65.7,29.86,East,88,0.0,2.0,72,0.00,,,0.00,Wunderground v.1.15,2013-02-24 20:25:00,
2013-02-24 15:30:00,75.4,66.1,29.86,East,88,0.0,0.0,73,0.00,,,0.00,Wunderground v.1.15,2013-02-24 20:30:00,
2013-02-24 15:40:00,76.7,67.0,29.86,ENE,73,0.0,1.0,72,0.00,,,0.00,Wunderground v.1.15,2013-02-24 20:40:00,
2013-02-24 15:45:00,76.7,67.0,29.86,ENE,57,0.0,1.0,72,0.00,,,0.00,Wunderground v.1.15,2013-02-24 20:45:00,
2013-02-24 15:55:00,76.8,65.9,29.86,ESE,104,1.0,1.0,69,0.00,,,0.00,Wunderground v.1.15,2013-02-24 20:55:00,
2013-02-24 16:05:00,76.1,66.0,29.86,ESE,107,0.0,0.0,71,0.00,,,0.00,Wunderground v.1.15,2013-02-24 21:05:00,
2013-02-24 16:15:00,74.9,65.7,29.85,ESE,114,0.0,0.0,73,0.00,,,0.00,Wunderground v.1.15,2013-02-24 21:15:00,
2013-02-24 16:30:00,74.6,65.8,29.86,East,91,1.0,1.0,74,0.00,,,0.00,Wunderground v.1.15,2013-02-24 21:30:00,
2013-02-24 16:40:00,74.7,65.9,29.86,East,91,0.0,0.0,74,0.00,,,0.00,Wunderground v.1.15,2013-02-24 21:40:00,
2013-02-24 16:50:00,75.1,65.1,29.86,ESE,114,0.0,1.0,71,0.00,,,0.00,Wunderground v.1.15,2013-02-24 21:50:00,
2013-02-24 16:55:00,75.1,64.6,29.86,East,80,1.0,1.0,70,0.00,,,0.00,Wunderground v.1.15,2013-02-24 21:55:00,
2013-02-24 17:05:00,74.9,64.5,29.86,NE,53,1.0,1.0,70,0.00,,,0.00,Wunderground v.1.15,2013-02-24 22:05:00,
2013-02-24 17:15:00,74.6,64.2,29.86,East,99,0.0,1.0,70,0.00,,,0.00,Wunderground v.1.15,2013-02-24 22:15:00,
2013-02-24 17:20:00,74.4,64.4,29.86,East,96,0.0,0.0,71,0.00,,,0.00,Wunderground v.1.15,2013-02-24 22:20:00,
2013-02-24 17:30:00,74.2,64.6,29.86,ENE,61,0.0,0.0,72,0.00,,,0.00,Wunderground v.1.15,2013-02-24 22:30:00,
2013-02-24 17:40:00,73.9,64.7,29.86,ENE,61,0.0,0.0,73,0.00,,,0.00,Wunderground v.1.15,2013-02-24 22:40:00,
2013-02-24 17:45:00,73.9,64.7,29.85,ENE,65,0.0,0.0,73,0.00,,,0.00,Wunderground v.1.15,2013-02-24 22:45:00,
2013-02-24 17:50:00,73.7,64.5,29.85,ENE,65,0.0,0.0,73,0.00,,,0.00,Wunderground v.1.15,2013-02-24 22:50:00,
2013-02-24 17:55:00,73.7,64.9,29.85,ENE,65,0.0,0.0,74,0.00,,,0.00,Wunderground v.1.15,2013-02-24 22:55:00,
2013-02-24 18:05:00,73.3,64.5,29.86,East,96,0.0,0.0,74,0.00,,,0.00,Wunderground v.1.15,2013-02-24 23:05:00,
2013-02-24 18:15:00,73.0,63.8,29.87,NE,52,0.0,0.0,73,0.00,,,0.00,Wunderground v.1.15,2013-02-24 23:15:00,
2013-02-24 18:20:00,73.0,63.8,29.87,NE,52,0.0,0.0,73,0.00,,,0.00,Wunderground v.1.15,2013-02-24 23:20:00,
2013-02-24 18:30:00,72.7,63.5,29.87,NE,52,0.0,0.0,73,0.00,,,0.00,Wunderground v.1.15,2013-02-24 23:30:00,
2013-02-24 18:40:00,72.3,63.5,29.87,ESE,106,0.0,0.0,74,0.00,,,0.00,Wunderground v.1.15,2013-02-24 23:40:00,
2013-02-24 18:50:00,72.0,63.6,29.87,ESE,102,0.0,0.0,75,0.00,,,0.00,Wunderground v.1.15,2013-02-24 23:50:00,
2013-02-24 18:55:00,71.6,63.3,29.87,ESE,102,0.0,1.0,75,0.00,,,0.00,Wunderground v.1.15,2013-02-24 23:55:00,
2013-02-24 19:05:00,71.3,63.3,29.88,ESE,102,0.0,0.0,76,0.00,,,0.00,Wunderground v.1.15,2013-02-25 00:05:00,
2013-02-24 19:15:00,71.1,63.5,29.88,ESE,102,0.0,1.0,77,0.00,,,0.00,Wunderground v.1.15,2013-02-25 00:15:00,
2013-02-24 19:20:00,70.9,63.3,29.88,ESE,102,0.0,0.0,77,0.00,,,0.00,Wunderground v.1.15,2013-02-25 00:20:00,
2013-02-24 19:30:00,70.8,63.2,29.89,ESE,102,0.0,0.0,77,0.00,,,0.00,Wunderground v.1.15,2013-02-25 00:30:00,
2013-02-24 19:40:00,70.4,63.2,29.89,ESE,102,0.0,0.0,78,0.00,,,0.00,Wunderground v.1.15,2013-02-25 00:40:00,
2013-02-24 19:50:00,70.3,63.5,29.90,ESE,102,0.0,0.0,79,0.00,,,0.00,Wunderground v.1.15,2013-02-25 00:50:00,
2013-02-24 20:00:00,69.9,63.1,29.90,ESE,102,0.0,0.0,79,0.00,,,0.00,Wunderground v.1.15,2013-02-25 01:00:00,
2013-02-24 20:05:00,69.6,63.2,29.90,ESE,102,0.0,0.0,80,0.00,,,0.00,Wunderground v.1.15,2013-02-25 01:05:00,
2013-02-24 20:15:00,69.1,63.0,29.90,ESE,102,0.0,0.0,81,0.00,,,0.00,Wunderground v.1.15,2013-02-25 01:15:00,
2013-02-24 20:20:00,68.9,63.2,29.90,ESE,102,0.0,0.0,82,0.00,,,0.00,Wunderground v.1.15,2013-02-25 01:20:00,
2013-02-24 20:30:00,68.3,62.9,29.89,ESE,102,0.0,0.0,83,0.00,,,0.00,Wunderground v.1.15,2013-02-25 01:30:00,
2013-02-24 20:40:00,67.9,62.9,29.89,ESE,102,0.0,0.0,84,0.00,,,0.00,Wunderground v.1.15,2013-02-25 01:40:00,
2013-02-24 20:50:00,67.8,63.1,29.90,ESE,102,0.0,0.0,85,0.00,,,0.00,Wunderground v.1.15,2013-02-25 01:50:00,
2013-02-24 21:00:00,67.4,62.7,29.91,ESE,102,0.0,0.0,85,0.00,,,0.00,Wunderground v.1.15,2013-02-25 02:00:00,
2013-02-24 21:05:00,67.6,63.3,29.91,ESE,102,0.0,0.0,86,0.00,,,0.00,Wunderground v.1.15,2013-02-25 02:05:00,
2013-02-24 21:15:00,67.6,63.3,29.91,ESE,102,0.0,0.0,86,0.00,,,0.00,Wunderground v.1.15,2013-02-25 02:15:00,
2013-02-24 21:25:00,67.6,62.9,29.91,ESE,102,0.0,0.0,85,0.00,,,0.00,Wunderground v.1.15,2013-02-25 02:25:00,
2013-02-24 21:35:00,67.4,62.7,29.92,ESE,102,0.0,0.0,85,0.00,,,0.00,Wunderground v.1.15,2013-02-25 02:35:00,
2013-02-24 21:45:00,67.3,61.6,29.91,ESE,102,0.0,0.0,82,0.00,,,0.00,Wunderground v.1.15,2013-02-25 02:45:00,
2013-02-24 21:55:00,67.3,61.6,29.91,ESE,102,0.0,0.0,82,0.00,,,0.00,Wunderground v.1.15,2013-02-25 02:55:00,
2013-02-24 22:05:00,67.1,61.8,29.90,East,95,0.0,0.0,83,0.00,,,0.00,Wunderground v.1.15,2013-02-25 03:05:00,
2013-02-24 22:15:00,66.8,61.8,29.89,ESE,102,0.0,1.0,84,0.00,,,0.00,Wunderground v.1.15,2013-02-25 03:15:00,
2013-02-24 22:20:00,66.4,61.4,29.89,East,94,0.0,0.0,84,0.00,,,0.00,Wunderground v.1.15,2013-02-25 03:20:00,
2013-02-24 22:30:00,66.1,60.4,29.89,ENE,57,0.0,1.0,82,0.00,,,0.00,Wunderground v.1.15,2013-02-25 03:30:00,
2013-02-24 22:40:00,65.8,59.8,29.89,NE,50,1.0,1.0,81,0.00,,,0.00,Wunderground v.1.15,2013-02-25 03:40:00,
2013-02-24 22:50:00,65.5,59.9,29.88,ESE,103,0.0,0.0,82,0.00,,,0.00,Wunderground v.1.15,2013-02-25 03:50:00,
2013-02-24 22:55:00,65.3,60.0,29.88,East,83,0.0,2.0,83,0.00,,,0.00,Wunderground v.1.15,2013-02-25 03:55:00,
2013-02-24 23:05:00,65.3,60.3,29.89,ESE,104,0.0,0.0,84,0.00,,,0.00,Wunderground v.1.15,2013-02-25 04:05:00,
2013-02-24 23:15:00,65.2,60.2,29.89,ESE,105,0.0,1.0,84,0.00,,,0.00,Wunderground v.1.15,2013-02-25 04:15:00,
2013-02-24 23:25:00,65.2,60.6,29.89,ESE,107,0.0,2.0,85,0.00,,,0.00,Wunderground v.1.15,2013-02-25 04:25:00,
2013-02-24 23:30:00,65.2,60.6,29.89,ESE,107,0.0,0.0,85,0.00,,,0.00,Wunderground v.1.15,2013-02-25 04:30:00,
2013-02-24 23:40:00,65.2,60.9,29.89,ESE,107,0.0,0.0,86,0.00,,,0.00,Wunderground v.1.15,2013-02-25 04:40:00,
2013-02-24 23:50:00,65.0,60.7,29.88,ESE,108,0.0,0.0,86,0.00,,,0.00,Wunderground v.1.15,2013-02-25 04:50:00,
2013-02-24 23:55:00,65.0,60.7,29.88,ESE,108,0.0,0.0,86,0.00,,,0.00,Wunderground v.1.15,2013-02-25 04:55:00,